User: anonymous   Login
Location: Kalberh�ni
(46.4610°N, 7.2453°E)
Time: 00:26:10
(UTC+00:00)
Language:

SL-14 R/B - Orbit

View from above orbital plane
View from above orbital plane
View from above satellite
View from above satellite

Ground track
Ground track

The orbit data is extracted from the following two-line orbital elements,

1 33505U 09003B   21263.56558724 -.00000160  00000-0 -11620-4 0  9997
2 33505  82.3909 134.8072 0024139 235.2680 124.6276 15.10104352695649
Epoch (UTC): 20 September 2021 13:34:26
Eccentricity: 0.0024139
inclination: 82.3909°
perigee height: 519 km
apogee height: 552 km
right ascension of ascending node: 134.8072°
argument of perigee: 235.2680°
revolutions per day: 15.10104352
mean anomaly at epoch: 124.6276°
orbit number at epoch: 69564

The dashed part of the orbit path shows where the satellite is in the earth's shadow,  

DLR